Weather History for Rocky Mount, NC

Change the Weather History Date:

Saturday, February 16, 2013

  Actual Average Record
Temperature  
Mean Temperature 38 °F -  
Max Temperature 44 °F 56 °F 77 °F (1976)
Min Temperature 33 °F 34 °F 17 °F (1963)
Degree Days  
Heating Degree Days 26    
Moisture  
Dew Point 32 °F    
Average Humidity 84    
Maximum Humidity 93    
Minimum Humidity 63    
Precipitation  
Precipitation 0.26 in - - ()
Sea Level Pressure  
Sea Level Pressure 29.87 in    
Wind  
Wind Speed 8 mph (NNW)    
Max Wind Speed 14 mph    
Max Gust Speed 20 mph    
Visibility 6 miles    
Events Rain , Snow    
Averages and records for this station are not official NWS values.
T = Trace of Precipitation, MM = Missing Value Source: NWS Daily Summary

Daily Weather History Graph

Daily Weather History Graph

Search for Another Location

Airport:

Trip Planner

Search our weather history database for the weather conditions in past years. The results will help you decide how hot, cold, wet, or windy it might be!

Date:

Astronomy

Feb. 16, 2013 Rise Set
Actual Time 6:57 AM EST 5:54 PM EST
Civil Twilight 6:31 AM EST 6:20 PM EST
Nautical Twilight 6:01 AM EST 6:50 PM EST
Astronomical Twilight 5:31 AM EST 7:20 PM EST
Moon 10:23 AM EST (2/16) No Moon Set
Length of Visible Light 11h 49m
Length of Day
10h 57m
Waxing Crescent, 39% of the Moon is Illuminated
Feb 16
Waxing Crescent
Feb 17
First Quarter
Feb 25
Full
Mar 4
Last Quarter
Mar 11
New

Hourly Weather History & Observations

Time (EST) Temp. Windchill Dew Point Humidity Pressure Visibility Wind Dir Wind Speed Gust Speed Precip Events Conditions
12:53 AM 43.0 °F - 35.1 °F 74% 29.96 in 10.0 mi Calm Calm - N/A   Clear
1:53 AM 43.0 °F 39.5 °F 33.1 °F 68% 29.95 in 10.0 mi NW 5.8 mph - N/A   Clear
2:53 AM 43.0 °F 38.2 °F 34.0 °F 71% 29.95 in 10.0 mi North 8.1 mph - N/A   Mostly Cloudy
3:53 AM 43.0 °F 37.7 °F 35.1 °F 74% 29.94 in 10.0 mi NNE 9.2 mph - N/A   Overcast
4:53 AM 42.1 °F 36.1 °F 35.1 °F 76% 29.94 in 10.0 mi NNE 10.4 mph - N/A   Overcast
5:53 AM 41.0 °F 35.2 °F 34.0 °F 76% 29.94 in 10.0 mi NNE 9.2 mph - N/A   Overcast
6:53 AM 39.0 °F 33.4 °F 34.0 °F 82% 29.93 in 10.0 mi NNE 8.1 mph - N/A   Overcast
7:53 AM 39.0 °F 33.4 °F 33.1 °F 79% 29.93 in 10.0 mi North 8.1 mph - N/A   Partly Cloudy
8:53 AM 44.1 °F 38.1 °F 33.1 °F 65% 29.93 in 10.0 mi NNE 11.5 mph 19.6 mph N/A   Mostly Cloudy
9:53 AM 44.1 °F 37.7 °F 32.0 °F 63% 29.93 in 10.0 mi NNE 12.7 mph - N/A   Overcast
10:38 AM 42.8 °F 35.8 °F 32.0 °F 66% 29.92 in 10.0 mi NNE 13.8 mph - N/A   Overcast
10:53 AM 42.1 °F 35.7 °F 32.0 °F 67% 29.93 in 10.0 mi North 11.5 mph - N/A   Overcast
11:09 AM 41.0 °F 34.3 °F 32.0 °F 70% 29.92 in 10.0 mi North 11.5 mph - N/A   Overcast
11:53 AM 39.9 °F 33.4 °F 33.1 °F 77% 29.90 in 10.0 mi North 10.4 mph - 0.00 in Rain Light Rain
12:25 PM 39.2 °F 32.5 °F 33.8 °F 81% 29.88 in 10.0 mi North 10.4 mph - 0.01 in Rain Light Rain
12:36 PM 39.2 °F 32.0 °F 33.8 °F 81% 29.87 in 9.0 mi North 11.5 mph - 0.01 in Rain Light Rain
12:45 PM 37.4 °F 29.3 °F 35.6 °F 93% 29.87 in 7.0 mi North 12.7 mph - 0.01 in Rain Light Rain
12:53 PM 37.9 °F 30.5 °F 34.0 °F 86% 29.87 in 7.0 mi NNW 11.5 mph - 0.02 in Rain Light Rain
1:38 PM 33.8 °F 25.8 °F 32.0 °F 93% 29.86 in 2.0 mi North 10.4 mph - 0.06 in Snow Light Snow
1:48 PM 33.8 °F 26.4 °F 32.0 °F 93% 29.85 in 1.5 mi North 9.2 mph - 0.07 in Snow Light Snow
1:53 PM 34.0 °F 27.2 °F 32.0 °F 92% 29.85 in 1.2 mi North 8.1 mph - 0.07 in Snow Light Snow
2:29 PM 33.8 °F 27.0 °F 30.2 °F 87% 29.83 in 0.8 mi North 8.1 mph - 0.04 in Snow Light Snow
2:53 PM 33.1 °F 25.5 °F 30.9 °F 92% 29.83 in 0.8 mi North 9.2 mph - 0.06 in Snow Light Snow
3:16 PM 33.8 °F 27.0 °F 30.2 °F 87% 29.82 in 1.0 mi NNW 8.1 mph - 0.02 in Snow Light Snow
3:53 PM 33.1 °F 24.4 °F 30.9 °F 92% 29.82 in 1.5 mi NNW 11.5 mph - 0.04 in Snow Light Snow
4:14 PM 33.8 °F 26.4 °F 30.2 °F 87% 29.81 in 2.0 mi NNW 9.2 mph - 0.00 in Snow Light Snow
4:21 PM 33.8 °F 27.0 °F 30.2 °F 87% 29.81 in 1.8 mi NNW 8.1 mph - 0.00 in Snow Light Snow
4:53 PM 33.1 °F 26.1 °F 30.9 °F 92% 29.83 in 1.5 mi NNW 8.1 mph - 0.01 in Snow Light Snow
5:53 PM 33.1 °F 25.5 °F 30.9 °F 92% 29.83 in 2.5 mi North 9.2 mph - 0.03 in Snow Light Snow
6:01 PM 33.8 °F 27.7 °F 30.2 °F 87% 29.82 in 4.0 mi NNW 6.9 mph - 0.00 in Snow Light Snow
6:53 PM 34.0 °F 28.8 °F 30.9 °F 89% 29.83 in 5.0 mi NNW 5.8 mph - 0.00 in Snow Light Snow
7:50 PM 33.8 °F 27.0 °F 30.2 °F 87% 29.83 in 2.0 mi NW 8.1 mph - 0.01 in Snow Light Snow
7:53 PM 33.1 °F 26.9 °F 30.9 °F 92% 29.84 in 2.0 mi NW 6.9 mph - 0.01 in Snow Light Snow
8:05 PM 33.8 °F 26.4 °F 30.2 °F 87% 29.84 in 1.8 mi NW 9.2 mph - 0.00 in Snow Light Snow
8:23 PM 33.8 °F 27.0 °F 30.2 °F 87% 29.84 in 2.0 mi NW 8.1 mph - 0.01 in Snow Light Snow
8:53 PM 33.1 °F 25.5 °F 30.9 °F 92% 29.85 in 3.0 mi NW 9.2 mph - 0.01 in Snow Light Snow
9:13 PM 33.8 °F 26.4 °F 30.2 °F 87% 29.85 in 5.0 mi NNW 9.2 mph - 0.00 in Snow Light Snow
9:18 PM 33.8 °F 27.7 °F 30.2 °F 87% 29.85 in 5.0 mi NNW 6.9 mph - 0.00 in Snow Light Snow
9:25 PM 33.8 °F 27.0 °F 30.2 °F 87% 29.85 in 6.0 mi NW 8.1 mph - 0.00 in Snow Light Snow
9:41 PM 33.8 °F 25.8 °F 30.2 °F 87% 29.86 in 1.8 mi NW 10.4 mph - 0.01 in Snow Light Snow
9:53 PM 33.1 °F 26.1 °F 30.9 °F 92% 29.86 in 1.5 mi NNW 8.1 mph - 0.01 in Snow Light Snow
10:05 PM 33.8 °F 26.4 °F 30.2 °F 87% 29.86 in 2.0 mi NW 9.2 mph - 0.00 in Snow Light Snow
10:24 PM 33.8 °F 27.0 °F 30.2 °F 87% 29.87 in 3.0 mi NNW 8.1 mph - 0.00 in Snow Light Snow
10:53 PM 33.1 °F 26.9 °F 30.0 °F 89% 29.87 in 3.0 mi NNW 6.9 mph - 0.00 in Snow Light Snow
10:56 PM 33.8 °F 28.6 °F 30.2 °F 87% 29.87 in 3.0 mi NNW 5.8 mph - 0.00 in Snow Light Snow
11:41 PM 33.8 °F 27.0 °F 30.2 °F 87% 29.88 in 10.0 mi WNW 8.1 mph - 0.00 in   Overcast
11:49 PM 33.8 °F 27.0 °F 30.2 °F 87% 29.88 in 10.0 mi NW 8.1 mph - 0.00 in   Overcast
11:53 PM 33.1 °F 26.1 °F 30.0 °F 89% 29.89 in 10.0 mi NW 8.1 mph - 0.00 in   Overcast